Provo, UT

8:16 PM MST on November 11, 2019 (GMT -0700)
Provo Municipal

Weather History for KPVU - September, 2019

Change the Weather History Date:

Monday, September 16, 2019

  Actual Average Record
Temperature  
Mean Temperature 76 °F -  
Max Temperature 87 °F 73 °F 91 °F (2000)
Min Temperature 68 °F 46 °F 41 °F (1991)
Cooling Degree Days 11    
Growing Degree Days 26 (Base 50)    
Moisture  
Dew Point 44 °F    
Average Humidity 34    
Maximum Humidity 45    
Minimum Humidity 22    
Precipitation  
Precipitation 0.00 in - - ()
Sea Level Pressure  
Sea Level Pressure 29.75 in    
Wind  
Wind Speed 12 mph (SSE)    
Max Wind Speed 23 mph    
Max Gust Speed 24 mph    
Visibility 10 miles    
Events Thunderstorm    
Averages and records for this station are not official NWS values.
T = Trace of Precipitation, MM = Missing Value Source: NWS Daily Summary

Daily Weather History Graph

Daily Weather History Graph

Search for Another Location

Airport or City:

Astronomy

Sep. 16, 2019 Rise Set
Actual Time 7:08 AM MDT 7:34 PM MDT
Civil Twilight 6:41 AM MDT 8:01 PM MDT
Nautical Twilight 6:09 AM MDT 8:33 PM MDT
Astronomical Twilight 5:36 AM MDT 9:06 PM MDT
Moon 9:10 PM MDT (9/16) 9:19 AM MDT (9/16)
Length of Visible Light 13h 20m
Length of Day
12h 25m
Waning Gibbous, 94% of the Moon is Illuminated
Sep 16
Waning Gibbous
Sep 21
Last Quarter
Sep 28
New
Oct 5
First Quarter
Oct 13
Full

Hourly Weather History & Observations

Time (MDT) Temp. Dew Point Humidity Pressure Visibility Wind Dir Wind Speed Gust Speed Precip Events Conditions
12:56 AM 70.0 °F 46.0 °F 42% 29.78 in 10.0 mi SE 5.8 mph - N/A   Clear
1:56 AM 71.1 °F 43.0 °F 36% 29.79 in 10.0 mi SSE 15.0 mph - N/A   Clear
2:56 AM 70.0 °F 44.1 °F 39% 29.79 in 10.0 mi North - - N/A   Clear
3:56 AM 69.1 °F 44.1 °F 40% 29.78 in 10.0 mi SE 11.5 mph - N/A   Scattered Clouds
4:56 AM 69.1 °F 46.9 °F 45% 29.78 in 10.0 mi South 10.4 mph - N/A   Clear
5:56 AM 68.0 °F 46.0 °F 45% 29.80 in 10.0 mi South 6.9 mph - N/A   Partly Cloudy
6:56 AM 68.0 °F 45.0 °F 43% 29.82 in 9.0 mi ESE 9.2 mph - N/A   Mostly Cloudy
6:57 AM 68.0 °F 45.0 °F 43% 29.82 in 10.0 mi ESE 9.2 mph - N/A   Mostly Cloudy
7:56 AM 69.1 °F 46.0 °F 44% 29.83 in 10.0 mi SE 11.5 mph - N/A   Mostly Cloudy
8:56 AM 70.0 °F 45.0 °F 41% 29.83 in 10.0 mi SSE 21.9 mph - N/A   Mostly Cloudy
9:56 AM 77.0 °F 46.9 °F 34% 29.80 in 10.0 mi SE 20.7 mph - N/A   Mostly Cloudy
10:56 AM 79.0 °F 46.9 °F 32% 29.80 in 10.0 mi SE 18.4 mph 24.2 mph N/A   Mostly Cloudy
11:56 AM 80.1 °F 46.9 °F 31% 29.77 in 10.0 mi SSW 10.4 mph - N/A   Mostly Cloudy
12:56 PM 80.1 °F 48.0 °F 32% 29.75 in 10.0 mi SSW 20.7 mph - N/A   Mostly Cloudy
1:56 PM 81.0 °F 45.0 °F 28% 29.73 in 10.0 mi SSW 18.4 mph - N/A   Partly Cloudy
2:56 PM 80.1 °F 46.9 °F 31% 29.71 in 10.0 mi SSW 23.0 mph - N/A   Mostly Cloudy
3:56 PM 82.0 °F 46.9 °F 29% 29.69 in 10.0 mi SSW 16.1 mph - N/A   Mostly Cloudy
4:56 PM 84.9 °F 42.1 °F 22% 29.65 in 10.0 mi South 12.7 mph - N/A   Partly Cloudy
5:56 PM 82.9 °F 42.1 °F 24% 29.65 in 10.0 mi South 13.8 mph - N/A   Mostly Cloudy
6:14 PM 80.6 °F 44.6 °F 28% 29.82 in 10.0 mi South 9.2 mph - N/A Thunderstorm Scattered Clouds
6:56 PM 75.0 °F 45.0 °F 34% 29.66 in 10.0 mi South 9.2 mph 17.3 mph N/A   Clear
7:56 PM 73.0 °F 41.0 °F 31% 29.66 in 10.0 mi South 9.2 mph - N/A   Clear
8:56 PM 73.9 °F 37.9 °F 27% 29.67 in 10.0 mi SSE 10.4 mph - N/A   Clear
9:56 PM 71.1 °F 39.0 °F 31% 29.67 in 10.0 mi South 10.4 mph - N/A   Clear
10:56 PM 72.0 °F 39.0 °F 30% 29.68 in 10.0 mi South 9.2 mph - N/A   Partly Cloudy
11:56 PM 72.0 °F 37.0 °F 28% 29.68 in 10.0 mi South 10.4 mph - N/A   Partly Cloudy